Weather History for Kenora, ON

Change the Weather History Date:

Wednesday, January 16, 2013

  Actual Average Record
Temperature  
Mean Temperature -6 °F -  
Max Temperature 7 °F 12 °F 30 °F (1999)
Min Temperature -20 °F -6 °F -27 °F (2005)
Degree Days  
Heating Degree Days 70    
Moisture  
Dew Point -8 °F    
Average Humidity 73    
Maximum Humidity 93    
Minimum Humidity 54    
Precipitation  
Precipitation 0.01 in 0.03 in - ()
Sea Level Pressure  
Sea Level Pressure 29.92 in    
Wind  
Wind Speed 10 mph ()    
Max Wind Speed 16 mph    
Max Gust Speed 23 mph    
Visibility 12.3 miles    
Events Snow    
Averages and records for this station are not official NWS values.
T = Trace of Precipitation, MM = Missing Value Source: Averaged Metar Reports

Daily Weather History Graph

Daily Weather History Graph

Search for Another Location

Airport:

Trip Planner

Search our weather history database for the weather conditions in past years. The results will help you decide how hot, cold, wet, or windy it might be!

Date:

Astronomy

Jan. 16, 2013 Rise Set
Actual Time 8:08 AM CST 4:47 PM CST
Civil Twilight 7:31 AM CST 5:23 PM CST
Nautical Twilight 6:51 AM CST 6:03 PM CST
Astronomical Twilight 6:13 AM CST 6:42 PM CST
Moon 10:08 AM CST (1/16) 11:19 PM CST (1/16)
Length of Visible Light 9h 51m
Length of Day
8h 38m
Waxing Crescent, 28% of the Moon is Illuminated
Jan 16
Waxing Crescent
Jan 18
First Quarter
Jan 26
Full
Feb 3
Last Quarter
Feb 10
New

Hourly Weather History & Observations

Time (CST) Temp. Windchill Dew Point Humidity Pressure Visibility Wind Dir Wind Speed Gust Speed Precip Events Conditions
12:00 AM 17 °F - 15 °F 88% 29.47 in 3 mi SW 12.7 mph - - Snow Light Snow
1:00 AM 17.6 °F 7.3 °F 15.8 °F 93% 29.47 in 6.0 mi WSW 8.1 mph - N/A Snow Light Snow
1:20 AM - - - N/A% - 10.0 mi West 8.1 mph - N/A   Unknown
2:00 AM 17.6 °F 6.4 °F 15.8 °F 93% 29.50 in 12.0 mi NW 9.2 mph - N/A Snow Light Snow
3:00 AM 15.8 °F 0.9 °F 10.4 °F 79% 29.55 in 8.0 mi NNW 15.0 mph - N/A Snow Light Snow
4:00 AM 12.2 °F -3.7 °F 8.6 °F 85% 29.59 in 6.0 mi NNW 15.0 mph - N/A Snow Light Snow
5:00 AM 10.4 °F -6.0 °F 6.8 °F 85% 29.62 in 6.0 mi NNW 15.0 mph 20.7 mph N/A Snow Light Snow
6:00 AM 8 °F - 4 °F 75% 29.67 in 6 mi NNW 13.8 mph - - Snow Light Snow
6:00 AM 8.6 °F -7.7 °F 3.2 °F 79% 29.67 in 6.0 mi NNW 13.8 mph 23.0 mph N/A Snow Light Snow
7:00 AM 5.0 °F -12.3 °F -0.4 °F 78% 29.71 in 12.0 mi NNW 13.8 mph 20.7 mph N/A Snow Light Snow
7:28 AM - - - N/A% - 15.0 mi NNW 15.0 mph 23.0 mph N/A   Unknown
8:00 AM 3.2 °F -15.3 °F -2.2 °F 78% 29.77 in 15.0 mi NNW 15.0 mph 20.7 mph N/A Snow Low Drifting Snow
9:00 AM -0.4 °F -20.5 °F -5.8 °F 78% 29.84 in 15.0 mi NNW 16.1 mph - N/A Snow Low Drifting Snow
10:00 AM -4.0 °F -25.2 °F -9.4 °F 78% 29.89 in 15.0 mi NNW 16.1 mph 23.0 mph N/A Snow Low Drifting Snow
11:00 AM -4.0 °F -22.1 °F -11.2 °F 71% 29.93 in 15.0 mi NW 11.5 mph 18.4 mph N/A Snow Low Drifting Snow
12:00 PM -4 °F - -12 °F 54% 29.96 in 15 mi NNW 11.5 mph - -   Partly Cloudy
12:00 PM -4.0 °F -23.0 °F -11.2 °F 71% 29.96 in 15.0 mi NNW 12.7 mph 18.4 mph N/A Snow Low Drifting Snow
1:00 PM -5.8 °F -23.4 °F -14.8 °F 65% 30.00 in 15.0 mi NNW 10.4 mph 20.7 mph N/A Snow Low Drifting Snow
2:00 PM -5.8 °F -24.4 °F -16.6 °F 60% 30.04 in 15.0 mi NNW 11.5 mph - N/A Snow Low Drifting Snow
4:00 PM -7.6 °F -25.7 °F -20.2 °F 54% 30.12 in 15.0 mi NNW 10.4 mph - N/A Snow Low Drifting Snow
5:00 PM -9.4 °F -28.9 °F -18.4 °F 65% 30.19 in 15.0 mi NNW 11.5 mph 17.3 mph N/A   Mostly Cloudy
6:00 PM -13 °F - -20 °F 55% 30.22 in 15 mi NNW 5.8 mph - -   Clear
6:00 PM -13.0 °F -25.1 °F -20.2 °F 70% 30.22 in 15.0 mi NNW 4.6 mph - N/A   Mostly Cloudy
7:00 PM -14.8 °F -30.8 °F -20.2 °F 77% 30.24 in 15.0 mi NW 6.9 mph - N/A   Partly Cloudy
8:00 PM -14.8 °F -32.2 °F -22.0 °F 70% 30.26 in 15.0 mi NW 8.1 mph - N/A   Clear
9:00 PM -16.6 °F -36.8 °F -23.8 °F 70% 30.29 in 15.0 mi NW 10.4 mph - N/A   Partly Cloudy
10:00 PM -18.4 °F -36.6 °F -25.6 °F 70% 30.31 in 15.0 mi NW 8.1 mph - N/A   Partly Cloudy
11:00 PM -20.2 °F -35.5 °F -27.4 °F 69% 30.31 in 15.0 mi WNW 5.8 mph - N/A   Partly Cloudy